[[{"header":{"parameterUnit":"m.s-1","parameterCategory":1,"la1":30.2991,"la2":30.254,"lo1":-89.0895,"lo2":-89.0444,"dy":0.0017,"dx":0.0017,"nx":28,"ny":28,"refTime":"2025-01-17T09:00:00:Z","depth":0,"parameterNumber":2,"parameterNumberName":"U-component_of_WINDS"},"data":[0,0,0,0,0,0,0,0,0,0,0,0,0,0,0,0,0,0,0,0,0,0,0,0,0,0,0,0,0,0,0,0,0,0,0,0,0,0,0,0,0,0,0,0,0,0,0,0,0,0,0,0,0,0,0,0,0,0,-2.9433,-2.9435,0,-2.9627,-2.9629,-2.9631,-2.9692,-2.9691,-2.969,-2.9689,-2.9891,-2.9897,-2.9903,0,0,0,0,0,0,0,0,0,0,0,0,0,-2.912,-2.9126,-2.9433,-2.9435,-2.9437,-2.9626,-2.9629,-2.9632,-2.9692,-2.9691,-2.969,-2.9689,-2.9889,-2.9896,-2.9903,0,0,0,0,0,0,0,0,0,0,0,0,0,-2.9279,-2.9127,-2.9432,-2.949,-2.9497,-2.9626,-2.9629,-2.9632,-2.9692,-2.9691,-2.9689,-2.9688,-2.9886,-2.9895,-2.9904,-2.999,0,0,-2.9933,-2.9937,0,0,0,0,0,0,0,0,-2.927,-2.9291,-2.9479,-2.9487,-2.9495,-2.9633,-2.9593,-2.9752,-2.9693,-2.9618,-2.9689,-2.9687,-2.9806,-2.9822,-2.9862,-2.9999,-3.0008,-2.9934,-2.9939,-2.9943,-2.9946,0,0,0,0,0,0,0,-2.9259,-2.9283,-2.9509,-2.9482,-2.9492,-2.9509,-2.953,-2.9623,-2.9718,-2.9625,-2.963,-2.9651,-2.981,-2.9853,-2.9867,-3.0011,-2.9934,-2.9942,-2.9948,-2.9951,-3.0231,-3.0233,0,0,0,0,0,0,-2.9238,-2.9273,-2.9503,-2.9515,-2.9377,-2.9515,-2.9539,-2.959,-2.9717,-2.9735,-2.9652,-2.9654,-2.9837,-2.9856,-2.9874,-2.9983,-2.9943,-2.9952,-2.9958,-3.0229,-3.0231,-3.0233,0,0,0,0,0,0,-2.9231,-2.9258,-2.9496,-2.9396,-2.9427,-2.9522,-2.958,-2.9595,-2.9637,-2.9738,-2.9756,-2.9678,-2.9837,-2.9861,-2.9961,-2.9991,-2.9956,-2.9965,-3.0227,-3.023,-3.0232,-3.0201,0,0,0,0,0,0,-2.9221,-2.9255,-2.9286,-2.9396,-2.9432,-2.9577,-2.9581,-2.96,-2.9653,-2.9656,-2.9766,-2.9783,-2.9838,-2.9947,-2.997,-3.0003,-2.9972,-3.0225,-3.0228,-3.0231,-3.02,-3.0203,-3.0205,0,0,0,0,0,-2.921,-2.927,-2.9288,-2.9315,-2.9474,-2.9579,-2.96,-2.966,-2.9655,-2.9689,-2.9754,-2.978,-2.9984,-2.9956,-2.9983,-3.002,-3.0223,-3.0227,-3.0231,-3.0199,-3.0202,-3.0205,0,0,0,0,0,0,-2.9162,-2.9285,-2.9306,-2.9403,-2.948,-2.9589,-2.9633,-2.9661,-2.9742,-2.9741,-2.9814,-2.9839,-2.9933,-2.9987,-2.9954,-3.0111,-3.0105,-3.0115,-3.0071,-3.0075,-3.0077,-3.0062,-2.998,0,0,0,0,0,-2.9163,-2.9236,-2.9341,-2.9417,-2.9454,-2.9537,-2.9585,-2.9625,-2.9708,-2.9741,-2.9813,-2.9894,-2.9976,-3.0029,-3.0111,-3.0209,-3.0235,-3.0248,-3.025,-3.0252,-3.0259,-3.0316,-3.0324,-3.0247,-3.0247,-3.0247,0,0,-2.9165,-2.9242,-2.9284,-2.9409,-2.9473,-2.9549,-2.9564,-2.9643,-2.97,-2.9753,-2.9851,-2.9908,-3.0003,-3.0102,-3.015,-3.015,-3.0286,-3.0257,-3.0257,-3.0264,-3.0321,-3.0329,-3.0335,-3.025,-3.0249,-3.0249,0,0,-2.9208,-2.9273,-2.9343,-2.9408,-2.9505,-2.956,-2.9577,-2.9682,-2.9722,-2.9822,-2.9863,-2.9934,-3.0074,-3.0141,-3.0193,-3.0264,-3.0291,-3.0289,-3.0301,-3.0356,-3.0362,-3.0368,-3.0394,-3.0402,-3.0296,-3.0296,-3.0296,0,-2.9198,-2.9313,-2.9376,-2.9454,-2.9509,-2.956,-2.9633,-2.9693,-2.9812,-2.985,-2.9848,-3.0027,-3.0095,-3.0211,-3.0229,-3.0269,-3.0292,-3.0276,-3.0356,-3.0363,-3.0369,-3.0394,-3.0404,-3.0295,-3.0295,-3.0295,-3.0296,0,-2.9297,-2.9376,-2.9422,-2.9535,-2.9595,-2.967,-2.9747,-2.9801,-2.9837,-2.9893,-2.9996,-3.0079,-3.0179,-3.021,-3.0246,-3.0333,-3.033,-3.0342,-3.0337,-3.0374,-3.0399,-3.0409,-3.0294,-3.0294,-3.0294,-3.0295,0,0,-2.9311,-2.946,-2.9476,-2.9529,-2.9641,-2.9704,-2.9784,-2.9881,-2.9926,-3.0008,-3.0076,-3.0196,-3.0208,-3.0267,-3.0312,-3.036,-3.0412,-3.0366,-3.037,-3.0372,-3.0514,-3.0504,-3.0514,-3.0432,-3.0434,-3.0436,-3.0506,0,-2.9368,-2.9508,-2.9569,-2.9683,-2.9758,-2.981,-2.9879,-2.9957,-3.0012,-3.0085,-3.0148,-3.0231,-3.024,-3.0277,-3.0327,-3.0395,-3.0442,-3.0391,-3.0497,-3.05,-3.047,-3.0527,-3.0516,-3.0578,-3.0516,-3.0518,-3.0519,0,-2.9451,-2.9532,-2.9653,-2.9758,-2.9792,-2.9853,-2.9948,-3.0017,-3.0107,-3.0145,-3.0212,-3.0255,-3.0342,-3.0334,-3.0455,-3.042,-3.0468,-3.0508,-3.0512,-3.0523,-3.0511,-3.0539,-3.0599,-3.0608,-3.0535,-3.0534,-3.0533,0,-2.9449,-2.9589,-2.968,-2.9724,-2.9849,-2.989,-2.9945,-3.0034,-3.0089,-3.0174,-3.0211,-3.0304,-3.0355,-3.0428,-3.0496,-3.0484,-3.0612,-3.0609,-3.0646,-3.0644,-3.0669,-3.0666,-3.0736,-3.0702,-3.0701,-3.0701,-3.0701,0,-2.9504,-2.9576,-2.9681,-2.9736,-2.9819,-2.9891,-2.9972,-3.003,-3.011,-3.0179,-3.0231,-3.0295,-3.0382,-3.0458,-3.0512,-3.0605,-3.0628,-3.0662,-3.0675,-3.0656,-3.0652,-3.0687,-3.0685,-3.0704,-3.0703,-3.0703,-3.0702,0,-2.9514,-2.9587,-2.969,-2.9801,-2.9831,-2.9887,-2.9983,-3.004,-3.0099,-3.0187,-3.0212,-3.0305,-3.0398,-3.0473,-3.0595,-3.0632,-3.0729,-3.0745,-3.0697,-3.0704,-3.0737,-3.0732,-3.0832,-3.0849,-3.0803,-3.0803,-3.0803,0,-2.9544,-2.9601,-2.9718,-2.9768,-2.9821,-2.9901,-2.9958,-3.0032,-3.009,-3.0199,-3.0243,-3.034,-3.042,-3.0566,-3.0646,-3.074,-3.0758,-3.0787,-3.0772,-3.0752,-3.0758,-3.0753,-3.076,-3.0787,-3.0787,-3.0787,-3.0787,0,-2.9589,-2.9623,-2.9702,-2.9795,-2.9862,-2.9939,-3.0017,-3.0056,-3.0145,-3.0207,-3.0302,-3.0365,-3.049,-3.0585,-3.0688,-3.0747,-3.0782,-3.0792,-3.0805,-3.0786,-3.0756,-3.0772,-3.07,-3.0788,-3.0788,-3.0788,-3.0788,-3.0788,-2.961,-2.9663,-2.9754,-2.9842,-2.9909,-2.9981,-3.0041,-3.0108,-3.0188,-3.0295,-3.0335,-3.0432,-3.0525,-3.0667,-3.0726,-3.0805,-3.0808,-3.0828,-3.0833,-3.0836,-3.0833,-3.0744,-3.0824,-3.0824,-3.0824,-3.0824,-3.0824,0,-2.9657,-2.9718,-2.9798,-2.9907,-2.9976,-3.0004,-3.0093,-3.015,-3.0235,-3.0318,-3.0396,-3.0507,-3.0601,-3.0689,-3.0787,-3.0834,-3.0853,-3.0857,-3.0854,-3.0867,-3.0825,-3.0803,-3.084,-3.084,-3.084,-3.084,-3.084,-3.084,-2.9689,-2.978,-2.9826,-2.9953,-3.0015,-3.011,-3.0159,-3.0227,-3.0294,-3.0414,-3.0492,-3.0549,-3.0635,-3.0741,-3.0829,-3.0853,-3.0886,-3.0886,-3.0914,-3.0872,-3.087,-3.0867,-3.0847,-3.0893,-3.0893,-3.095,-3.0951,-3.0951]},{"header":{"parameterUnit":"m.s-1","parameterCategory":1,"la1":30.2991,"la2":30.254,"lo1":-89.0895,"lo2":-89.0444,"dy":0.0017,"dx":0.0017,"nx":28,"ny":28,"refTime":"2025-01-17T09:00:00:Z","depth":0,"parameterNumber":3,"parameterNumberName":"V-component_of_WINDS"},"data":[0,0,0,0,0,0,0,0,0,0,0,0,0,0,0,0,0,0,0,0,0,0,0,0,0,0,0,0,0,0,0,0,0,0,0,0,0,0,0,0,0,0,0,0,0,0,0,0,0,0,0,0,0,0,0,0,0,0,1.2906,1.2907,0,1.3026,1.3027,1.3028,1.3101,1.3101,1.3101,1.3102,1.3228,1.3231,1.3234,0,0,0,0,0,0,0,0,0,0,0,0,0,1.2745,1.2747,1.2906,1.2907,1.2909,1.3025,1.3027,1.3029,1.3101,1.3101,1.3102,1.3102,1.3227,1.323,1.3234,0,0,0,0,0,0,0,0,0,0,0,0,0,1.2835,1.2748,1.2905,1.2959,1.2965,1.3025,1.3027,1.3029,1.3101,1.3101,1.3102,1.3102,1.3225,1.323,1.3234,1.3252,0,0,1.3248,1.325,0,0,0,0,0,0,0,0,1.2829,1.284,1.2949,1.2955,1.2962,1.3049,1.3017,1.3104,1.3101,1.3049,1.3102,1.3102,1.3168,1.3177,1.3199,1.3258,1.3263,1.3249,1.3251,1.3253,1.3255,0,0,0,0,0,0,0,1.2823,1.2836,1.2953,1.2951,1.2958,1.2978,1.2992,1.3033,1.3104,1.3054,1.3059,1.3072,1.3171,1.3194,1.3202,1.3265,1.3249,1.3253,1.3255,1.3257,1.335,1.335,0,0,0,0,0,0,1.2808,1.283,1.2949,1.2957,1.2895,1.2981,1.2996,1.302,1.3104,1.3117,1.3072,1.3075,1.3186,1.3197,1.3207,1.3236,1.3253,1.3258,1.326,1.335,1.335,1.3349,0,0,0,0,0,0,1.2804,1.2818,1.2945,1.2895,1.2913,1.2983,1.301,1.3022,1.3045,1.3118,1.3131,1.3081,1.3187,1.32,1.3241,1.3241,1.326,1.3264,1.335,1.335,1.335,1.3292,0,0,0,0,0,0,1.2799,1.2816,1.2822,1.2895,1.2915,1.2975,1.301,1.3024,1.3052,1.3058,1.313,1.3143,1.3188,1.3234,1.3246,1.3248,1.3267,1.3351,1.335,1.335,1.3294,1.329,1.3286,0,0,0,0,0,1.2793,1.2801,1.2822,1.2836,1.2924,1.2975,1.2987,1.3038,1.3052,1.306,1.3107,1.314,1.3239,1.3237,1.3251,1.3255,1.3351,1.335,1.335,1.3296,1.3291,1.3286,0,0,0,0,0,0,1.2727,1.2811,1.2835,1.2866,1.2913,1.2987,1.2998,1.303,1.3074,1.3077,1.3141,1.3156,1.3191,1.3227,1.3224,1.3279,1.3299,1.3301,1.3254,1.3249,1.3245,1.3236,1.3271,0,0,0,0,0,1.2715,1.2748,1.2821,1.2842,1.2864,1.2926,1.2951,1.2986,1.3037,1.3058,1.3108,1.3157,1.32,1.3226,1.3269,1.33,1.3318,1.331,1.3305,1.3301,1.3303,1.3325,1.3323,1.3347,1.3347,1.3347,0,0,1.2693,1.2743,1.276,1.283,1.287,1.2905,1.2943,1.2977,1.3004,1.3063,1.3105,1.3144,1.3203,1.324,1.3258,1.3271,1.33,1.3301,1.3297,1.3301,1.3324,1.3322,1.332,1.3347,1.3347,1.3347,0,0,1.267,1.271,1.2733,1.2773,1.2833,1.2876,1.2881,1.2951,1.2979,1.3022,1.3068,1.3102,1.3173,1.3214,1.3245,1.3241,1.3274,1.3253,1.3231,1.3252,1.3251,1.3249,1.325,1.325,1.3254,1.3254,1.3254,0,1.2635,1.2687,1.2741,1.2774,1.2804,1.2859,1.2885,1.2921,1.2992,1.3013,1.3026,1.3119,1.3162,1.3211,1.321,1.3232,1.3243,1.3245,1.3246,1.3245,1.3245,1.3247,1.3247,1.3251,1.3252,1.3252,1.3252,0,1.2643,1.2679,1.269,1.2758,1.279,1.2818,1.2879,1.2905,1.2939,1.298,1.3025,1.308,1.3136,1.315,1.3183,1.3205,1.3211,1.3234,1.3256,1.3239,1.3242,1.3243,1.3247,1.3248,1.3249,1.325,0,0,1.258,1.2679,1.2682,1.2715,1.2787,1.2817,1.2849,1.2904,1.2926,1.2975,1.3005,1.3066,1.3088,1.3123,1.3161,1.318,1.3177,1.3201,1.3204,1.3196,1.3207,1.319,1.319,1.3199,1.3199,1.32,1.3203,0,1.257,1.2629,1.268,1.2722,1.2758,1.2812,1.2841,1.2889,1.293,1.2968,1.3013,1.3056,1.3081,1.3103,1.3123,1.3172,1.318,1.3173,1.3231,1.3232,1.3215,1.3191,1.3172,1.3172,1.3204,1.3204,1.3204,0,1.2565,1.2611,1.2656,1.2727,1.2744,1.2768,1.2824,1.2859,1.2916,1.2945,1.2984,1.3025,1.3065,1.3083,1.314,1.3134,1.3161,1.319,1.3191,1.3199,1.3217,1.32,1.3173,1.3174,1.3206,1.3206,1.3206,0,1.2517,1.2591,1.2628,1.2654,1.2737,1.2754,1.2789,1.2847,1.2878,1.2927,1.2948,1.3002,1.3031,1.3073,1.3128,1.3136,1.3181,1.3203,1.3208,1.3206,1.3215,1.3214,1.3194,1.323,1.323,1.323,1.323,0,1.2501,1.2527,1.2608,1.2631,1.2663,1.2723,1.2753,1.2794,1.2845,1.2879,1.2929,1.296,1.3031,1.3071,1.3115,1.3157,1.317,1.3196,1.3207,1.3192,1.3189,1.3211,1.3213,1.323,1.323,1.323,1.323,0,1.2454,1.2509,1.2554,1.2629,1.2648,1.2669,1.2735,1.276,1.2804,1.2847,1.286,1.293,1.298,1.3039,1.3109,1.3139,1.3178,1.3194,1.3158,1.3165,1.3168,1.3167,1.3162,1.3166,1.3197,1.3197,1.3196,0,1.244,1.2462,1.2539,1.2565,1.2599,1.264,1.2672,1.2732,1.2763,1.2832,1.285,1.2904,1.295,1.3029,1.3087,1.3141,1.316,1.3155,1.3169,1.3154,1.3163,1.3161,1.3165,1.3151,1.3151,1.315,1.315,0,1.2411,1.2438,1.2481,1.2534,1.257,1.2616,1.2663,1.2682,1.2752,1.2785,1.2837,1.2873,1.2945,1.2999,1.3061,1.31,1.3138,1.3145,1.3149,1.3134,1.3114,1.3127,1.3149,1.3145,1.3145,1.3146,1.3146,1.3146,1.2382,1.2405,1.2463,1.2511,1.2553,1.2596,1.2625,1.2673,1.2716,1.2779,1.2812,1.2864,1.2924,1.3012,1.305,1.3093,1.3106,1.3111,1.3113,1.3114,1.3111,1.3106,1.3104,1.3105,1.3105,1.3105,1.3105,0,1.2358,1.2398,1.2441,1.2506,1.2544,1.2574,1.2629,1.2659,1.2704,1.2756,1.2801,1.2862,1.2915,1.2978,1.3036,1.3059,1.3078,1.3072,1.3072,1.3081,1.3095,1.3086,1.3056,1.3056,1.3056,1.3056,1.3056,1.3056,1.2349,1.239,1.2424,1.2487,1.2529,1.2579,1.2608,1.2649,1.2692,1.2757,1.2801,1.2842,1.2899,1.2962,1.3014,1.3031,1.3051,1.3041,1.3063,1.3075,1.308,1.3084,1.3076,1.3044,1.3044,1.3046,1.3046,1.3046]}]]